SVA209 LIRF-LGAV

Flight info

Callsign SVA209
Flight time N/A
Altitude 35000
Route PEPIX9B PEPIX L50 UNIXO DCT LAMEB DCT RUTOM DCT ARA UY144 NEMES NEMES1Q
Aircraft A320/M-SDE3FGHIRWY/LB1

Departure

Time 2026-05-03 22:15
Airport Rome–Fiumicino Leonardo da Vinci International Airport (LIRF)

Arrival

Time N/A
Airport Athens Eleftherios Venizelos International Airport (LGAV)
Time Latitude Longitude Altitude Speed Heading
2026-05-03 21:17 41.79691 12.24857 14 ft 0 kts 250°
2026-05-03 21:54 41.79696 12.24878 15 ft 2 kts 251°
2026-05-03 21:54 41.79705 12.24896 16 ft 2 kts 219°
2026-05-03 21:54 41.79719 12.24910 17 ft 2 kts 219°
2026-05-03 21:54 41.79732 12.24925 14 ft 2 kts 253°
2026-05-03 21:55 41.79731 12.24946 15 ft 2 kts 325°
2026-05-03 21:55 41.79726 12.24951 15 ft 0 kts 341°
2026-05-03 22:02 41.79742 12.24943 14 ft 6 kts 339°
2026-05-03 22:03 41.79799 12.24911 14 ft 10 kts 337°
2026-05-03 22:03 41.79857 12.24879 16 ft 8 kts 338°
2026-05-03 22:03 41.79904 12.24854 14 ft 6 kts 341°
2026-05-03 22:03 41.79942 12.24838 16 ft 5 kts 343°
2026-05-03 22:04 41.79971 12.24826 14 ft 4 kts 343°
2026-05-03 22:04 41.79993 12.24817 14 ft 3 kts 340°
2026-05-03 22:04 41.80043 12.24791 14 ft 9 kts 339°
2026-05-03 22:04 41.80097 12.24775 14 ft 7 kts 357°
2026-05-03 22:05 41.80143 12.24771 14 ft 5 kts 348°
2026-05-03 22:05 41.80162 12.24728 14 ft 9 kts 273°
2026-05-03 22:05 41.80143 12.24644 13 ft 9 kts 250°
2026-05-03 22:05 41.80112 12.24529 14 ft 15 kts 250°
2026-05-03 22:06 41.80075 12.24394 13 ft 17 kts 250°
2026-05-03 22:06 41.80028 12.24223 14 ft 21 kts 250°
2026-05-03 22:06 41.79986 12.24037 14 ft 21 kts 264°
2026-05-03 22:06 41.79942 12.23843 13 ft 23 kts 250°
2026-05-03 22:07 41.79905 12.23705 15 ft 13 kts 256°
2026-05-03 22:07 41.79931 12.23645 15 ft 0 kts 331°
2026-05-03 22:07 41.79941 12.23640 15 ft 6 kts 336°
2026-05-03 22:08 41.80022 12.23607 17 ft 17 kts 344°
2026-05-03 22:08 41.80156 12.23551 15 ft 22 kts 342°
2026-05-03 22:08 41.80307 12.23487 15 ft 23 kts 342°
2026-05-03 22:08 41.80465 12.23420 15 ft 24 kts 342°
2026-05-03 22:09 41.80629 12.23351 15 ft 25 kts 342°
2026-05-03 22:09 41.80800 12.23280 15 ft 26 kts 343°
2026-05-03 22:09 41.80977 12.23207 15 ft 27 kts 342°
2026-05-03 22:10 41.81343 12.23052 15 ft 28 kts 343°
2026-05-03 22:10 41.81493 12.22980 16 ft 14 kts 320°
2026-05-03 22:10 41.81544 12.22869 17 ft 14 kts 297°
2026-05-03 22:10 41.81553 12.22844 15 ft 0 kts 297°
2026-05-03 22:13 41.81558 12.22831 15 ft 9 kts 296°
2026-05-03 22:13 41.81553 12.22694 15 ft 17 kts 240°
2026-05-03 22:14 41.81448 12.22682 15 ft 18 kts 161°
2026-05-03 22:14 41.81193 12.22788 14 ft 71 kts 162°
2026-05-03 22:14 41.80513 12.23072 15 ft 131 kts 162°
2026-05-03 22:14 41.79484 12.23502 23 ft 176 kts 163°
2026-05-03 22:15 41.78316 12.23995 643 ft 175 kts 163°
2026-05-03 22:15 41.77159 12.24483 1349 ft 176 kts 166°
2026-05-03 22:15 41.75905 12.24427 1695 ft 193 kts 201°
2026-05-03 22:15 41.74565 12.23788 1968 ft 217 kts 198°
2026-05-03 22:16 41.73026 12.23207 2362 ft 241 kts 195°
2026-05-03 22:16 41.71363 12.22643 2976 ft 255 kts 194°
2026-05-03 22:16 41.69620 12.22078 3845 ft 259 kts 193°
2026-05-03 22:16 41.67856 12.21518 4745 ft 262 kts 193°
2026-05-03 22:17 41.66073 12.20957 5646 ft 264 kts 193°
2026-05-03 22:17 41.64274 12.20389 6555 ft 266 kts 192°
2026-05-03 22:17 41.62464 12.19815 7385 ft 269 kts 193°
2026-05-03 22:17 41.60628 12.19235 8160 ft 274 kts 193°
2026-05-03 22:18 41.58754 12.18641 8929 ft 279 kts 193°
2026-05-03 22:18 41.56844 12.18036 9696 ft 284 kts 193°
2026-05-03 22:18 41.54893 12.17437 10082 ft 290 kts 192°
2026-05-03 22:18 41.52897 12.16914 10172 ft 301 kts 190°
2026-05-03 22:19 41.50735 12.16397 10187 ft 323 kts 189°
2026-05-03 22:19 41.48525 12.15883 10187 ft 328 kts 189°
2026-05-03 22:19 41.46296 12.15363 10192 ft 331 kts 189°
2026-05-03 22:19 41.43985 12.14813 10608 ft 342 kts 190°
2026-05-03 22:20 41.41570 12.14230 10786 ft 364 kts 190°
2026-05-03 22:20 41.39016 12.13608 11080 ft 379 kts 190°
2026-05-03 22:20 41.36442 12.12982 12115 ft 367 kts 190°
2026-05-03 22:20 41.33973 12.12536 13521 ft 350 kts 183°
2026-05-03 22:21 41.32374 12.12521 14212 ft 346 kts 177°
2026-05-03 22:21 41.29190 12.13211 15157 ft 348 kts 165°
2026-05-03 22:21 41.27656 12.13862 15557 ft 351 kts 163°
2026-05-03 22:21 41.25320 12.14877 16138 ft 355 kts 163°
2026-05-03 22:22 41.22954 12.15891 16724 ft 359 kts 163°
2026-05-03 22:22 41.20566 12.16910 17310 ft 363 kts 163°
2026-05-03 22:22 41.18160 12.17970 17892 ft 367 kts 159°
2026-05-03 22:22 41.15870 12.19510 18461 ft 372 kts 148°
2026-05-03 22:23 41.13830 12.21649 18952 ft 377 kts 136°
2026-05-03 22:23 41.11952 12.24094 19442 ft 380 kts 136°
2026-05-03 22:23 41.10052 12.26558 19932 ft 384 kts 136°
2026-05-03 22:23 41.08127 12.29039 20418 ft 388 kts 136°
2026-05-03 22:24 41.06180 12.31535 20896 ft 391 kts 136°
2026-05-03 22:24 41.04216 12.34052 21368 ft 395 kts 136°
2026-05-03 22:24 41.02234 12.36593 21835 ft 398 kts 136°
2026-05-03 22:24 41.00236 12.39159 22297 ft 402 kts 136°
2026-05-03 22:25 40.98221 12.41747 22741 ft 406 kts 136°
2026-05-03 22:25 40.96185 12.44361 23150 ft 410 kts 136°
2026-05-03 22:25 40.94129 12.46993 23575 ft 414 kts 136°
2026-05-03 22:25 40.92052 12.49648 23968 ft 417 kts 136°
2026-05-03 22:26 40.89956 12.52325 24337 ft 420 kts 136°
2026-05-03 22:26 40.87849 12.55015 24703 ft 423 kts 136°
2026-05-03 22:26 40.85727 12.57721 25064 ft 425 kts 137°
2026-05-03 22:26 40.83590 12.60442 25419 ft 428 kts 137°
2026-05-03 22:27 40.81443 12.63176 25824 ft 429 kts 137°
2026-05-03 22:27 40.79299 12.65912 26290 ft 428 kts 135°
2026-05-03 22:27 40.77358 12.68895 26751 ft 429 kts 126°
2026-05-03 22:27 40.75805 12.72186 27186 ft 429 kts 119°
2026-05-03 22:28 40.74343 12.75616 27640 ft 429 kts 119°
2026-05-03 22:28 40.72879 12.79034 28098 ft 429 kts 118°
2026-05-03 22:28 40.71410 12.82458 28534 ft 429 kts 118°
2026-05-03 22:28 40.69940 12.85876 28983 ft 429 kts 118°
2026-05-03 22:29 40.68465 12.89288 29435 ft 429 kts 119°
2026-05-03 22:29 40.66989 12.92697 29874 ft 428 kts 118°
2026-05-03 22:29 40.65514 12.96103 30321 ft 428 kts 118°
2026-05-03 22:29 40.64042 12.99507 30687 ft 428 kts 119°
2026-05-03 22:30 40.62570 13.02909 31056 ft 428 kts 119°
2026-05-03 22:30 40.61097 13.06316 31422 ft 428 kts 119°
2026-05-03 22:30 40.59625 13.09722 31779 ft 428 kts 119°
2026-05-03 22:30 40.58152 13.13127 32116 ft 429 kts 120°
2026-05-03 22:31 40.56664 13.16559 32254 ft 435 kts 119°
2026-05-03 22:31 40.55150 13.20041 32390 ft 442 kts 119°
2026-05-03 22:31 40.53612 13.23563 32522 ft 448 kts 119°
2026-05-03 22:31 40.52052 13.27134 32655 ft 453 kts 119°
2026-05-03 22:32 40.50471 13.30751 32777 ft 459 kts 119°
2026-05-03 22:32 40.48872 13.34412 32923 ft 465 kts 119°
2026-05-03 22:32 40.47253 13.38112 33051 ft 470 kts 119°
2026-05-03 22:32 40.45617 13.41849 33187 ft 475 kts 119°
2026-05-03 22:33 40.43963 13.45625 33322 ft 479 kts 119°
2026-05-03 22:33 40.42291 13.49434 33457 ft 483 kts 119°
2026-05-03 22:33 40.40604 13.53271 33601 ft 488 kts 119°
2026-05-03 22:33 40.38902 13.57138 33734 ft 491 kts 119°
2026-05-03 22:34 40.37186 13.61032 33911 ft 494 kts 119°
2026-05-03 22:34 40.35465 13.64927 34184 ft 494 kts 119°
2026-05-03 22:34 40.33741 13.68823 34438 ft 494 kts 119°
2026-05-03 22:34 40.32016 13.72717 34716 ft 493 kts 119°
2026-05-03 22:35 40.30294 13.76602 34996 ft 492 kts 119°
2026-05-03 22:35 40.28573 13.80481 35159 ft 493 kts 119°
2026-05-03 22:35 40.26848 13.84373 35200 ft 496 kts 119°
2026-05-03 22:36 40.23358 13.92219 35204 ft 500 kts 119°
2026-05-03 22:36 40.19839 14.00087 35196 ft 501 kts 119°
2026-05-03 22:37 40.16317 14.07953 35196 ft 501 kts 119°
2026-05-03 22:37 40.12795 14.15821 35202 ft 501 kts 119°
2026-05-03 22:38 40.09267 14.23678 35214 ft 502 kts 118°
2026-05-03 22:38 40.05722 14.31538 35198 ft 503 kts 118°
2026-05-03 22:39 40.02168 14.39404 35192 ft 504 kts 118°
2026-05-03 22:39 39.98601 14.47272 35189 ft 504 kts 118°
2026-05-03 22:40 39.95029 14.55141 35185 ft 504 kts 119°
2026-05-03 22:40 39.91450 14.63003 35187 ft 505 kts 119°
2026-05-03 22:41 39.87857 14.70861 35195 ft 505 kts 119°
2026-05-03 22:41 39.84254 14.78724 35200 ft 506 kts 119°
2026-05-03 22:42 39.80649 14.86582 35203 ft 506 kts 119°
2026-05-03 22:42 39.77033 14.94434 35221 ft 506 kts 119°
2026-05-03 22:43 39.73421 15.02269 35226 ft 505 kts 119°
2026-05-03 22:43 39.69813 15.10080 35228 ft 503 kts 119°
2026-05-03 22:44 39.66215 15.17862 35227 ft 502 kts 119°
2026-05-03 22:44 39.62613 15.25628 35223 ft 502 kts 119°
2026-05-03 22:45 39.59000 15.33367 35231 ft 502 kts 118°
2026-05-03 22:45 39.55385 15.41108 35212 ft 502 kts 118°
2026-05-03 22:46 39.51766 15.48847 35190 ft 503 kts 118°
2026-05-03 22:46 39.50100 15.52399 35193 ft 503 kts 118°
2026-05-03 22:47 39.49464 15.53751 35195 ft 503 kts 118°
2026-05-03 22:47 39.48747 15.55276 35198 ft 503 kts 118°
2026-05-03 22:48 39.47185 15.58596 35214 ft 503 kts 118°
2026-05-03 22:48 39.45225 15.62756 35215 ft 503 kts 118°
2026-05-03 22:49 39.41575 15.70498 35238 ft 505 kts 118°
2026-05-03 22:49 39.37914 15.78253 35220 ft 506 kts 118°
2026-05-03 22:50 39.34242 15.86008 35218 ft 506 kts 118°
2026-05-03 22:50 39.30565 15.93755 35220 ft 506 kts 118°
2026-05-03 22:51 39.26882 16.01488 35235 ft 506 kts 118°
2026-05-03 22:51 39.23192 16.09222 35223 ft 507 kts 118°
2026-05-03 22:52 39.19497 16.16962 35219 ft 507 kts 118°
2026-05-03 22:52 39.15788 16.24705 35216 ft 508 kts 118°
2026-05-03 22:53 39.12066 16.32445 35218 ft 508 kts 118°
2026-05-03 22:53 39.08438 16.40244 35232 ft 505 kts 111°
2026-05-03 22:54 39.06129 16.48665 35213 ft 496 kts 99°
2026-05-03 22:54 39.05261 16.52975 35347 ft 499 kts 99°
2026-05-03 22:54 39.04383 16.57289 35580 ft 498 kts 99°
2026-05-03 22:54 39.03497 16.61602 35795 ft 498 kts 99°
2026-05-03 22:55 39.02607 16.65911 35995 ft 498 kts 99°
2026-05-03 22:55 39.01717 16.70213 36216 ft 498 kts 99°
2026-05-03 22:55 39.00826 16.74522 36393 ft 498 kts 99°
2026-05-03 22:55 38.99938 16.78825 36571 ft 498 kts 99°
2026-05-03 22:56 38.99049 16.83133 36772 ft 498 kts 99°
2026-05-03 22:56 38.98159 16.87430 36982 ft 498 kts 100°
2026-05-03 22:56 38.97266 16.91728 37149 ft 498 kts 100°
2026-05-03 22:57 38.95478 17.00322 37180 ft 498 kts 100°
2026-05-03 22:57 38.93687 17.08908 37167 ft 497 kts 100°
2026-05-03 22:58 38.91889 17.17468 37170 ft 496 kts 100°
2026-05-03 22:58 38.90080 17.26019 37169 ft 496 kts 100°
2026-05-03 22:59 38.88261 17.34561 37174 ft 496 kts 100°
2026-05-03 22:59 38.86444 17.43109 37202 ft 497 kts 100°
2026-05-03 23:00 38.84711 17.51293 37192 ft 497 kts 100°
2026-05-03 23:00 38.82882 17.59845 37185 ft 497 kts 100°
2026-05-03 23:01 38.81036 17.68391 37186 ft 497 kts 100°
2026-05-03 23:01 38.79190 17.76931 37209 ft 497 kts 100°
2026-05-03 23:02 38.77343 17.85474 37198 ft 497 kts 100°
2026-05-03 23:02 38.75485 17.94014 37193 ft 498 kts 100°
2026-05-03 23:03 38.73623 18.02551 37193 ft 498 kts 100°
2026-05-03 23:03 38.71754 18.11085 37192 ft 498 kts 101°